Location: Sedan
(39.2354°N, 78.5718°W)
Time: 10:20:52
(UTC+00:00)

Tiangong - Visible Passes

Search period start: 02 December 2021 00:00
Search period end: 12 December 2021 00:00
Orbit: 380 x 384 km, 41.5° (Epoch: 01 December)

Date Brightness Start Highest point End Pass type
(mag) Time Alt. Az. Time Alt. Az. Time Alt. Az.
05 Dec 3.8 23:26:45 10° SSE 23:26:51 10° SSE 23:26:51 10° SSE visible
07 Dec 3.6 00:00:40 10° SW 00:01:39 17° SSW 00:01:39 17° SSW visible
07 Dec 3.0 23:00:54 10° SSW 23:03:12 19° SSE 23:04:13 16° ESE visible
08 Dec 1.7 23:36:09 10° SW 23:38:52 49° S 23:38:52 49° S visible
09 Dec 2.3 22:35:58 10° SW 22:38:49 31° SSE 22:41:18 12° E visible
10 Dec 3.8 00:12:19 10° W 00:13:27 20° W 00:13:27 20° W visible
10 Dec 1.0 23:11:45 10° WSW 23:14:54 82° SSE 23:15:49 43° E visible
11 Dec 2.3 23:48:03 10° W 23:50:18 39° WNW 23:50:18 39° WNW visible
